Date String (YYYY-MM-DD hh:mm:ss) UTC,Instrument flags,absolute air pressure of the measurement (hPa),sample flow rate (lpm),inlet stack bypass flow (lpm),air temperature of the measurement (°C),ambient temperature measured by the external sensor (°C),aerosol sample conditioner tube jacket temperature (°C),OPC LED temperature (°C),internal box temperature (°C),relative humidity of the measurement (%),span deviation,mass concentration of particles derived from Lorenz-Mie calculation of OPC scattering (μg/m³),mass concentration of particles derived from Lorenz-Mie calculation of OPC scattering (μg/m³),mass concentration of particles derived from Lorenz-Mie calculation of OPC scattering (μg/m³)
DateTimeUTC,F1_M11,P_M11,Q1_M11,Q2_M11,T1_M11,T2_M11,T3_M11,T4_M11,T5_M11,U1_M11,ZSPAN_M11,X0_M11,X2_M11,X1_M11
2024-03-06 00:00:00,SystemResetWarning,0824.4,5.01,000.00,019.5,018.9,000.0,028.0,021.2,15.3,0000.0,0016.31,0004.89,0003.63
2024-03-06 00:01:00,SystemResetWarning,0824.3,4.99,000.00,019.5,018.9,000.0,028.0,021.2,15.2,0000.0,0015.72,0004.98,0003.64
2024-03-06 00:02:00,SystemResetWarning,0824.4,4.99,000.00,019.5,018.8,000.0,028.0,021.2,15.3,0000.0,0015.65,0005.01,0003.65
2024-03-06 00:03:00,SystemResetWarning,0824.4,5.01,000.00,019.5,018.8,000.0,028.0,021.2,15.3,0000.0,0015.85,0005.04,0003.65
2024-03-06 00:04:00,SystemResetWarning,0824.4,5.00,000.00,019.5,018.8,000.0,028.0,021.2,15.4,0000.0,0015.05,0005.06,0003.67
2024-03-06 00:05:00,SystemResetWarning,0824.3,4.99,000.00,019.5,018.8,000.0,028.0,021.2,15.4,0000.0,0017.00,0005.07,0003.67
2024-03-06 00:06:00,SystemResetWarning,0824.4,5.00,000.00,019.5,018.8,000.0,028.0,021.2,15.4,0000.0,0017.40,0005.08,0003.69
2024-03-06 00:07:00,SystemResetWarning,0824.4,5.00,000.00,019.5,018.8,000.0,028.0,021.2,15.4,0000.0,0017.17,0005.13,0003.70
2024-03-06 00:08:00,SystemResetWarning,0824.4,5.01,000.00,019.5,018.8,000.0,027.9,021.2,15.4,0000.0,0016.93,0005.06,0003.69
2024-03-06 00:09:00,SystemResetWarning,0824.4,4.99,000.00,019.5,018.8,000.0,027.9,021.2,15.5,0000.0,0016.63,0005.01,0003.68
2024-03-06 00:10:00,SystemResetWarning,0824.4,4.99,000.00,019.5,018.8,000.0,027.9,021.2,15.5,0000.0,0016.46,0004.99,0003.67
2024-03-06 00:11:00,SystemResetWarning,0824.4,5.00,000.00,019.5,018.8,000.0,027.9,021.2,15.5,0000.0,0016.54,0004.90,0003.65
2024-03-06 00:12:00,SystemResetWarning,0824.5,5.00,000.00,019.5,018.8,000.0,027.9,021.2,15.6,0000.0,0016.61,0004.84,0003.64
2024-03-06 00:13:00,SystemResetWarning,0824.4,5.01,000.00,019.5,018.8,000.0,027.9,021.2,15.6,0000.0,0017.08,0004.78,0003.64
2024-03-06 00:14:00,SystemResetWarning,0824.4,5.01,000.00,019.5,018.8,000.0,027.9,021.2,15.7,0000.0,0017.12,0004.77,0003.62
2024-03-06 00:15:00,SystemResetWarning,0824.5,5.00,000.00,019.5,018.8,000.0,027.9,021.2,15.7,0000.0,0016.84,0004.79,0003.60
2024-03-06 00:16:00,SystemResetWarning,0824.5,4.98,000.00,019.5,018.9,000.0,027.9,021.2,15.6,0000.0,0015.23,0004.75,0003.60
2024-03-06 00:17:00,SystemResetWarning,0824.5,5.00,000.00,019.5,018.9,000.0,027.9,021.2,15.6,0000.0,0014.92,0004.72,0003.59
2024-03-06 00:18:00,SystemResetWarning,0824.4,5.01,000.00,019.5,018.8,000.0,027.9,021.2,15.6,0000.0,0014.72,0004.66,0003.58
2024-03-06 00:19:00,SystemResetWarning,0824.4,5.01,000.00,019.5,018.8,000.0,027.9,021.2,15.6,0000.0,0015.04,0004.66,0003.59
2024-03-06 00:20:00,SystemResetWarning,0824.5,4.99,000.00,019.5,018.8,000.0,027.9,021.2,15.7,0000.0,0015.55,0004.74,0003.61
2024-03-06 00:21:00,SystemResetWarning,0824.5,4.99,000.00,019.5,018.8,000.0,027.9,021.2,15.7,0000.0,0015.94,0004.82,0003.63
2024-03-06 00:22:00,SystemResetWarning,0824.5,5.01,000.00,019.5,018.8,000.0,027.9,021.1,15.7,0000.0,0015.94,0004.86,0003.65
2024-03-06 00:23:00,SystemResetWarning,0824.5,5.01,000.00,019.5,018.8,000.0,027.9,021.1,15.6,0000.0,0015.63,0004.84,0003.65
2024-03-06 00:24:00,SystemResetWarning,0824.5,5.00,000.00,019.5,018.8,000.0,027.9,021.2,15.6,0000.0,0014.70,0004.80,0003.66
2024-03-06 00:25:00,SystemResetWarning,0824.5,5.00,000.00,019.5,018.8,000.0,027.9,021.2,15.6,0000.0,0014.83,0004.77,0003.67
2024-03-06 00:26:00,SystemResetWarning,0824.5,4.99,000.00,019.5,018.8,000.0,027.9,021.2,15.7,0000.0,0015.42,0004.73,0003.68
2024-03-06 00:27:00,SystemResetWarning,0824.5,5.00,000.00,019.5,018.8,000.0,027.9,021.2,15.8,0000.0,0016.23,0004.76,0003.70
2024-03-06 00:28:00,SystemResetWarning,0824.5,5.01,000.00,019.5,018.8,000.0,027.9,021.1,15.8,0000.0,0016.65,0004.82,0003.69
2024-03-06 00:29:00,SystemResetWarning,0824.5,5.01,000.00,019.5,018.8,000.0,027.9,021.2,15.9,0000.0,0017.69,0004.81,0003.69
2024-03-06 00:30:00,SystemResetWarning,0824.5,5.00,000.00,019.5,018.8,000.0,027.9,021.2,15.9,0000.0,0017.78,0004.82,0003.68
2024-03-06 00:31:00,SystemResetWarning,0824.5,4.99,000.00,019.4,018.8,000.0,027.9,021.2,16.0,0000.0,0019.14,0004.86,0003.67
2024-03-06 00:32:00,SystemResetWarning,0824.4,4.98,000.00,019.4,018.8,000.0,027.9,021.1,16.0,0000.0,0019.62,0004.84,0003.66
2024-03-06 00:33:00,SystemResetWarning,0824.4,5.01,000.00,019.4,018.8,000.0,027.9,021.1,16.0,0000.0,0019.09,0004.90,0003.65
2024-03-06 00:34:00,SystemResetWarning,0824.4,5.00,000.00,019.4,018.8,000.0,027.9,021.1,16.1,0000.0,0019.72,0004.94,0003.64
2024-03-06 00:35:00,SystemResetWarning,0824.5,5.00,000.00,019.4,018.8,000.0,027.9,021.1,16.5,0000.0,0020.46,0004.94,0003.62
2024-03-06 00:36:00,SystemResetWarning,0824.5,5.00,000.00,019.4,018.8,000.0,027.9,021.1,16.5,0000.0,0020.44,0004.98,0003.60
2024-03-06 00:37:00,SystemResetWarning,0824.5,5.00,000.00,019.4,018.8,000.0,027.9,021.1,16.7,0000.0,0019.94,0004.92,0003.57
2024-03-06 00:38:00,SystemResetWarning,0824.5,4.99,000.00,019.4,018.8,000.0,027.9,021.1,16.8,0000.0,0020.42,0004.89,0003.56
2024-03-06 00:39:00,SystemResetWarning,0824.4,5.00,000.00,019.4,018.8,000.0,027.9,021.1,16.9,0000.0,0020.34,0004.84,0003.56
2024-03-06 00:40:00,SystemResetWarning,0824.4,5.01,000.00,019.4,018.8,000.0,027.9,021.1,17.2,0000.0,0019.86,0004.84,0003.55
2024-03-06 00:41:00,SystemResetWarning,0824.4,5.01,000.00,019.4,018.8,000.0,027.9,021.1,17.4,0000.0,0019.64,0004.81,0003.55
2024-03-06 00:42:00,SystemResetWarning,0824.3,5.00,000.00,019.4,018.8,000.0,027.9,021.0,17.6,0000.0,0018.24,0004.73,0003.54
2024-03-06 00:43:00,SystemResetWarning,0824.4,5.00,000.00,019.4,018.8,000.0,027.9,021.0,17.5,0000.0,0017.60,0004.71,0003.54
2024-03-06 00:44:00,SystemResetWarning,0824.3,5.00,000.00,019.4,018.8,000.0,027.9,021.0,17.5,0000.0,0018.30,0004.68,0003.52
2024-03-06 00:45:00,SystemResetWarning,0824.3,5.00,000.00,019.4,018.8,000.0,027.9,021.0,17.4,0000.0,0017.55,0004.64,0003.50
2024-03-06 00:46:00,SystemResetWarning,0824.3,5.00,000.00,019.4,018.8,000.0,027.8,021.0,17.5,0000.0,0016.97,0004.67,0003.49
2024-03-06 00:47:00,SystemResetWarning,0824.3,4.99,000.00,019.4,018.8,000.0,027.8,021.0,17.4,0000.0,0016.42,0004.64,0003.49
2024-03-06 00:48:00,SystemResetWarning,0824.3,4.99,000.00,019.4,018.8,000.0,027.8,021.0,17.1,0000.0,0018.06,0004.67,0003.47
2024-03-06 00:49:00,SystemResetWarning,0824.3,5.00,000.00,019.3,018.7,000.0,027.8,020.9,17.1,0000.0,0020.17,0004.66,0003.44
2024-03-06 00:50:00,SystemResetWarning,0824.3,5.00,000.00,019.3,018.7,000.0,027.8,020.9,17.3,0000.0,0019.22,0004.61,0003.40
2024-03-06 00:51:00,SystemResetWarning,0824.3,5.01,000.00,019.3,018.7,000.0,027.8,020.9,17.5,0000.0,0019.59,0004.56,0003.34
2024-03-06 00:52:00,SystemResetWarning,0824.3,5.00,000.00,019.3,018.7,000.0,027.8,020.9,17.7,0000.0,0019.52,0004.54,0003.28
2024-03-06 00:53:00,SystemResetWarning,0824.3,5.01,000.00,019.3,018.7,000.0,027.8,020.9,17.7,0000.0,0020.07,0004.48,0003.21
2024-03-06 00:54:00,SystemResetWarning,0824.3,4.99,000.00,019.3,018.7,000.0,027.7,020.9,17.7,0000.0,0020.25,0004.35,0003.10
2024-03-06 00:55:00,SystemResetWarning,0824.3,4.99,000.00,019.3,018.7,000.0,027.7,020.8,17.7,0000.0,0019.31,0004.21,0002.98
2024-03-06 00:56:00,SystemResetWarning,0824.3,5.01,000.00,019.3,018.7,000.0,027.7,020.8,17.7,0000.0,0019.98,0004.08,0002.82
2024-03-06 00:57:00,SystemResetWarning,0824.3,5.00,000.00,019.2,018.7,000.0,027.7,020.8,17.8,0000.0,0019.40,0003.87,0002.61
2024-03-06 00:58:00,SystemResetWarning,0824.4,5.00,000.00,019.2,018.6,000.0,027.7,020.8,18.0,0000.0,0018.99,0003.69,0002.38
2024-03-06 00:59:00,SystemResetWarning,0824.4,5.00,000.00,019.2,018.6,000.0,027.7,020.8,18.1,0000.0,0017.12,0003.52,0002.17
